Showing default

COSMOS 2546, 45608

Orbit data source: Space-Track

COSMOS 2546, 45608 is a payload satellite owned by VVKO VKS (CIS) in HEO that was launched on Fri, 22 May 2020 UTC via a SOYUZ-2-1B launch vehicle from the Plesetsk Missile And Space Complex (PKMTR). Payload-class satellites include a variety of spacecraft equipped with specific instruments for various scientific and technological missions. These include communications satellites like Starlink; space stations such as the ISS; scientific satellites like the Hubble; Earth observation satellites from companies like Planet Labs, Umbra, and HawkEye 360; GPS; miniature CubeSats for education and research; and military/defense satellites.

Loading next visibility...
Identifier
45608, 2020-031A
Orbit
HEO
Country
Flag of CISCIS
Related business
Manufacturer
RKKE/KOMET
Mission
Operational Defense Early Warn
Bus & Motor
14F142, Unknown motor
Mass
2,550 kg wet, ~2,000 kg dry
Launch date (UTC)
2020-05-22 (5 years ago)
Launch vehicle
SOYUZ-2-1B
Launch site
Plesetsk Missile And Space Complex (PKMTR)
Object type
Payload
Rocket body
Debris
Shape & HBR
Box + 2 Pan, Unknown HBR
Radar Cross Section
14.304 m², Large (>1 m²)

Expand to show TLE details & history
Last TLE update: 6 days ago

TLE from 6 days ago
0 COSMOS 2546
1 45608U 20031A   25253.36067237  .00000265  00000-0  00000-0 0  9993
2 45608  63.1223 101.0795 6934817 265.2234  19.4331  2.00626246 38850
Epoch: 2025-09-10T08:39Z
TLE epoch observation values (Epoch: 2025-09-10T08:39:22.092Z)
Latitude
-0.00003°
Longitude
-18.39553°
Altitude
8,241.969 km
Speed
6.287 km/s
True Right ascension
06h 44m 20s
True Declination
0° 00' 00"
Sunlit
Object was in daylight at epoch
Visualization orbit readout
Latitude
Unknown
Longitude
Unknown
Altitude
Unknown
Speed
Unknown
Apparent Right ascension
Unknown
Apparent Declination
Unknown
Sunlit
N/A
Visualization observer readout
Local Sidereal Time
16:40:32
Azimuth
Unknown
Elevation
Unknown
Doppler factor
Unknown
Orbital elements
Apogee altitude
38,590.538 km
Perigee altitude
1,761.143 km
Semi-major axis
26,553.977 km
Eccentricity
0.69348
Inclination
63.1223°
RAAN
101.0795°
Arg. of periapsis
265.2234°
True anomaly
94.94371°
Mean anomaly
19.4331°
Eccentric anomaly
49.7664°
Mean motion
0.50159 °/min
Orbital period
717.72 mins
BSTAR
0
Loading maneuver chart data...
Computing Atmospheric mass density...
Loading historical data...
Loading historical data...
Loading historical data...
Loading historical data...
Loading historical data...
Loading historical data...
Loading historical data...
Other satellites on launch #31 in the year 2020 (2020-05-22 UTC)

Documentation

Showing up to 5 results
|